Other Public Products
Issued by NWS Grand Forks, ND

Home | Current Version | Previous Version | Text Only | Print | Product List | Glossary Off
Versions: 1 2 3 4 5 6 7 8 9 10 11 12 13 14 15 16 17 18 19 20 21 22 23 24 25 26 27 28 29 30 31 32 33 34 35 36 37 38 39 40 41 42 43 44 45 46 47 48 49 50

000
FPUS83 KFGF 272210
OPUFGF
PRAIRIE TO PINES WEATHER ROUNDUP
NATIONAL WEATHER SERVICE EASTERN NORTH DAKOTA/GRAND FORKS ND
500 PM CDT FRI MAY 27 2016

 **SATELLITE DATA USED TO AUGMENT SKY COVER AT AUTOMATED STATIONS**
 *****  WEATHER ACROSS EASTERN NORTH DAKOTA  *****

CITY           SKY/WX    TMP DP  RH WIND       PRES   REMARKS
GRAND FORKS    PTSUNNY   74  54  49 N8        29.76S
GRAND FORKS AF PTSUNNY   72  51  47 NE6       29.78S
GRAND CITY NWS   N/A     73 N/A N/A N3          N/A
BUXTON           N/A     73  58  59 N7          N/A
DEVILS LAKE    SUNNY     69  50  50 W6        29.80F
FARGO          LGT RAIN  61  58  90 NW9       29.76S
WAHPETON ARPT  CLOUDY    75  54  46 SE13      29.74S
$$

 *****  WEATHER ACROSS CENTRAL AND WESTERN NORTH DAKOTA  *****

CITY           SKY/WX    TMP DP  RH WIND       PRES   REMARKS
JAMESTOWN      PTSUNNY   72  51  47 N6        29.78S
BISMARCK       PTSUNNY   72  46  39 CALM      29.80F
MINOT          CLOUDY    68  52  56 E5        29.81R
MINOT AFB      PTSUNNY   67  53  61 E8        29.80R
GARRISON         N/A     66  50  56 CALM      29.81F
WILLISTON      CLOUDY    67  50  54 E5        29.83S
DICKINSON      CLOUDY    69  42  37 VRB3      29.80F
HETTINGER      CLOUDY    65  47  52 SE7       29.83F
$$

 *****  OTHER OBSERVATIONS NORTHEAST NORTH DAKOTA  *****

CITY           SKY/WX    TMP DP  RH WIND       PRES   REMARKS
WALHALLA       FAIR      68  63  83 N16       29.79S
LANGDON        MOCLDY    72  59  64 N10       29.81S
CAVALIER       FAIR      72  57  60 SE5       29.78F
GRAFTON        FAIR      72  54  53 VRB5      29.80S
CANDO          NOT AVBL
FORT TOTTEN      N/A     71  50  47 N5        29.95S
ROLLA          CLOUDY    59  59 100 NE17      29.86R
RUGBY          MOCLDY    66  54  63 N10       29.80F
 ***** THE ABOVE OBSERVATIONS ARE NON NWS ARE NOT QUALITY
        CONTROLLED AND MAY MIS-REPORT RAIN FOR SNOW...
$$

 *****  OTHER OBSERVATIONS SOUTHEAST NORTH DAKOTA *****

CITY           SKY/WX    TMP DP  RH WIND       PRES   REMARKS
COOPERSTOWN    NOT AVBL
VALLEY CITY    FAIR      73  55  53 N9        29.79F
OAKES            N/A    N/A N/A N/A MISG        N/A
GWINNER        MOCLDY    63  61  94 SW14      29.77S
SHEYENNE NWR     N/A     63  57  82 S5        29.95S
BUFFALO          N/A     72  51  48 N6          N/A
WYNDMERE         N/A     75  55  50 S9          N/A
 ***** THE ABOVE OBSERVATIONS ARE NON NWS ARE NOT QUALITY
       CONTROLLED AND MAY MIS-REPORT RAIN FOR SNOW...
$$

  *****  WEATHER ACROSS NORTHERN MINNESOTA  *****

CITY           SKY/WX    TMP DP  RH WIND       PRES   REMARKS
FLAG ISLAND    LGT RAIN  63  61  94 CALM      29.83S
WARROAD        RAIN      63  57  82 E13G20    29.83S
ROSEAU         TSTM      61  55  82 E7        29.82R
HALLOCK        MOSUNNY   73  50  43 NW3       29.77F
THF RVR FALLS  CLOUDY    66  57  72 SE14      29.80R
HALSTAD        NOT AVBL
FOSSTON        MOSUNNY   66  57  72 E10G16    29.79S
BAUDETTE       PTSUNNY   69  54  58 S18G24    29.83S
WASKISH        CLOUDY    66  57  72 SE10G17   29.83F
CROOKSTON      LGT RAIN  72  59  64 N12       29.76S
$$
  *****  WEATHER ACROSS CENTRAL AND WEST MINNESOTA  *****

CITY           SKY/WX    TMP DP  RH WIND       PRES   REMARKS
BEMIDJI        CLOUDY    63  54  72 SE16G24   29.83S
PARK RAPIDS    CLOUDY    65  55  70 SE18      29.81R
WADENA         CLOUDY    64  59  82 SE14G20   29.80R
DETROIT LAKES  CLOUDY    70  59  68 SE13      29.79R
MOORHEAD       LGT RAIN  64  63  94 NW9       29.77R
FERGUS FALLS   CLOUDY    70  57  64 SE7       29.73S
ELBOW LAKE     FAIR      67  60  78 E10G17    29.76S
MORRIS MN      CLOUDY    68  63  83 E6        29.74F
STAPLES        RAIN      59  57  94 E8        29.82R
WHEATON        CLOUDY    72  59  64 S3        29.76F
$$
  *****  WEATHER ELSEWHERE ACROSS MINNESOTA  *****

CITY           SKY/WX    TMP DP  RH WIND       PRES   REMARKS
DULUTH         LGT RAIN  52  50  93 E5        29.87R
INTRNTL FALLS  CLOUDY    66  54  65 VRB3      29.86R
ELY            LGT RAIN  61  57  88 NE3       29.90S
CLOQUET        LGT RAIN  52  50  93 E3        29.85F
BRAINERD       CLOUDY    62  58  86 E3        29.83S
HIBBING        LGT RAIN  60  57  89 NE5       29.88S
ALEXANDRIA     LGT RAIN  63  60  90 E12       29.79S FOG
SAINT CLOUD    LGT RAIN  61  60  97 NE7       29.80S VSB 1
MINNEAPOLIS    LGT RAIN  65  61  87 N7        29.77S FOG
$$

  *****  WEATHER ACROSS SOUTH DAKOTA  *****

CITY           SKY/WX    TMP DP  RH WIND       PRES   REMARKS
SIOUX FALLS    PTSUNNY   75  58  55 NE6       29.72F
BROOKINGS      NOT AVBL
WATERTOWN      CLOUDY    66  58  75 W7        29.77F
HURON          PTSUNNY   71  57  61 MISG      29.75F
SISSETON         N/A     70  54  56 SW8       29.74F
ABERDEEN       LGT RAIN  64  58  80 S7        29.78F
MITCHELL       MOSUNNY   72  59  63 NE6       29.75F
PIERRE         PTSUNNY   70  52  52 NE5       29.77F
MOBRIDGE       PTSUNNY   72  47  40 N3        29.77S
RAPID CITY     CLOUDY    60  49  66 S14       29.85R
$$

  *****  SOME WEATHER IN NEARBY STATES *****

CITY           SKY/WX    TMP DP  RH WIND       PRES   REMARKS
GLASGOW MT     PTSUNNY   70  49  47 E10       29.82F
GREAT FALLS MT CLOUDY    64  36  35 SW10      29.82S
CHEYENNE WY    CLOUDY    53  42  66 E10       29.92S
SCOTTSBLUFF NE MOSUNNY   59  44  57 MISG      29.87F
OMAHA NE       PTSUNNY   78  59  51 E5        29.70F
DES MOINES IA  CLOUDY    76  62  62 W7        29.73F
DAVENPORT IA   MOSUNNY   77  68  73 S16       29.76F
CHICAGO IL     CLOUDY    77  67  71 S15       29.83S
EAU CLAIRE WI  CLOUDY    67  65  93 NE7       29.73F
LA CROSSE WI   PTSUNNY   76  64  66 S9        29.73F
$$

  *****  SOME NATIONAL WEATHER *****

CITY           SKY/WX    TMP DP  RH WIND       PRES   REMARKS
LA GUARDIA NY  PTSUNNY   80  68  66 S16       30.00F
RALEIGH NC     MOSUNNY   84  62  47 SW5       30.09S
ATLANTA GA     PTSUNNY   84  59  42 SE15G21   30.04F
NEW ORLEANS LA CLOUDY    84  68  58 SE13      29.91S
OKLAHOMA CITY  MOSUNNY   81  64  56 S14       29.67F
ALBUQUERQUE NM PTSUNNY   75  22  13 W13G28    29.86F
SALT LAKE CITY PTSUNNY   70  33  25 W12       29.91F
LOS ANGELES CA MOSUNNY   68  55  63 W14       29.87F
BOISE ID       SUNNY     67  29  24 N16G25    29.94F
SEATTLE WA     PTSUNNY   62  38  40 SW13      30.14F
$$

*** WEATHER ACROSS MANITOBA...SASKATCHEWAN AND ONTARIO ***
                ***ONTARIO***

CITY           SKY/WX    TMP DP  RH WIND       PRES   REMARKS
GERALDTON      CLOUDY    70  55  60 SE8       29.90S
THUNDER BAY    CLOUDY    54  48  82 NE8       29.91F
SIOUX LOOKOUT  LGT RAIN  66  55  68 SW12G18   29.88R
TORONTO        PTSUNNY   84  64  51 W13       29.93S
BIG TROUT LK   CLOUDY    48  39  71 NE10G17   30.07S
PICKLE LAKE    PTSUNNY   61  54  77 NE13      29.91S
DRYDEN         CLOUDY    61  57  88 VRB2      29.88S
KENORA         PTSUNNY   66  57  72 S17       29.85R
$$
                *** MANITOBA***

CITY           SKY/WX    TMP DP  RH WIND       PRES   REMARKS
BRANDON        PTSUNNY   57  52  82 NE22G29   29.89R
DAUPHIN        CLOUDY    54  48  82 N15       29.97R
ISLAND LAKE    CLOUDY    46  39  76 NE8G17    30.10S
PILOT MOUND      N/A     59  55  88 N18G25      N/A
THE PAS        CLOUDY    52  39  62 E7G17     30.07S
THOMPSON       CLOUDY    45  32  61 NE10G18   30.19S
WINNIPEG       MOSUNNY   66  59  77 NE16      29.82F
LYNN LAKE      SUNNY     52  34  50 SE13G25   30.14S
CHURCHILL      CLOUDY    32  27  80 E7        30.36R
GILLAM         CLOUDY    41  32  70 NE10G18   30.26R
$$
                ***SASKATCHEWAN***

CITY           SKY/WX    TMP DP  RH WIND       PRES   REMARKS
ESTEVAN        PTSUNNY   61  55  82 E12       29.85F
KINDERSLEY     PTSUNNY   70  43  37 SE21      29.79F
LLOYDMINSTER   PTSUNNY   73  45  35 SE16G22   29.77F
PRINCE ALBERT  PTSUNNY   63  48  59 E16G24    29.92F
REGINA         PTSUNNY   72  48  43 E20G26    29.86S
YORKTON        SUNNY     66  52  59 NE20G25   29.90S   C1F1C2F2C3F3C4F4C5F5C6F6C7F7C8F8C9F9CaFaCbFbCcFcCdFdCe!


USA.gov is the U.S. government's official web portal to all federal, state and local government web resources and services.